Location: Observatoire
(46.1952°N, 5.3391°E)
Time: 01:21:09
(UTC+02:00)

First-Move - Visible Passes

Search period start: 19 April 2024 00:00
Search period end: 29 April 2024 00:00
Orbit: 541 x 607 km, 97.7° (Epoch: 18 April)

Date Brightness Start Highest point End Pass type
(mag) Time Alt. Az. Time Alt. Az. Time Alt. Az.
19 Apr ? 04:12:39 10° NE 04:15:54 21° E 04:19:09 10° SE visible
19 Apr ? 05:47:16 10° N 05:51:14 39° WNW 05:55:12 10° SW visible
20 Apr ? 04:15:33 10° NE 04:18:56 23° E 04:22:19 10° SE visible
20 Apr ? 05:50:19 10° N 05:54:13 37° WNW 05:58:08 10° SW visible
21 Apr ? 04:18:27 10° NE 04:21:56 24° E 04:25:24 10° SSE visible
21 Apr ? 05:53:18 10° N 05:57:10 35° WNW 06:01:02 10° SW visible
22 Apr ? 04:21:17 10° NE 04:24:51 26° E 04:28:26 10° SSE visible
22 Apr ? 05:56:15 10° N 06:00:03 32° WNW 06:03:51 10° SW visible
23 Apr ? 04:24:04 10° NE 04:27:44 27° E 04:31:23 10° SSE visible
23 Apr ? 05:59:09 10° N 06:02:54 31° WNW 06:06:37 10° SW visible
24 Apr ? 04:26:49 10° NE 04:30:34 29° E 04:34:17 10° SSE visible
24 Apr ? 06:02:00 10° N 06:05:40 29° WNW 06:09:21 10° SW visible
25 Apr ? 04:29:31 10° NNE 04:33:20 31° E 04:37:07 10° SSE visible
26 Apr ? 04:32:11 10° NNE 04:36:03 33° E 04:39:54 10° SSE visible
27 Apr ? 04:34:47 10° NNE 04:38:43 35° E 04:42:37 10° SSE visible
28 Apr ? 04:37:21 10° NNE 04:41:20 37° E 04:45:17 10° SSE visible
